| time (UTC) | temp F | wind direction | speed MPH | gust MPH | rain 1hr in | rain 24hr in | rain mn in | humidity % | barometer mb |
| 20260508080024 | 59 | 333 | 0.0 | 0.0 | 0.00 | 0.38 | 0.00 | 87 | 1011.6 |
| 20260508074520 | 58 | 23 | 0.0 | 0.0 | 0.00 | 0.38 | 0.00 | 87 | 1011.7 |
| 20260508073014 | 57 | 337 | 0.0 | 1.0 | 0.00 | 0.38 | 0.00 | 89 | 1011.6 |
| 20260508071510 | 56 | 360 | 0.0 | 0.0 | 0.00 | 0.38 | 0.00 | 90 | 1011.7 |
| 20260508070009 | 55 | 305 | 0.0 | 0.0 | 0.00 | 0.38 | 0.00 | 91 | 1011.8 |
| 20260508064513 | 55 | 349 | 0.0 | 0.0 | 0.00 | 0.38 | 0.00 | 91 | 1011.4 |
| 20260508063008 | 54 | 330 | 0.0 | 0.0 | 0.00 | 0.38 | 0.00 | 91 | 1011.4 |
| 20260508061507 | 54 | 296 | 0.0 | 0.0 | 0.00 | 0.38 | 0.00 | 92 | 1011.2 |
| 20260508060008 | 53 | 340 | 0.0 | 0.0 | 0.00 | 0.38 | 0.00 | 92 | 1011.0 |
| 20260508054506 | 52 | 4 | 0.0 | 0.0 | 0.00 | 0.38 | 0.00 | 92 | 1010.9 |
| 20260508053008 | 52 | 330 | 0.0 | 0.0 | 0.00 | 0.38 | 0.00 | 93 | 1010.8 |
| 20260508051502 | 0 | 0.0 | 0.0 | 0.00 | 0.38 | 0.00 | 1010.4 | ||
| 20260508050059 | 0 | 0.0 | 0.0 | 0.00 | 0.38 | 0.00 | 1010.3 | ||
| 20260508044557 | 0 | 0.0 | 0.0 | 0.00 | 0.38 | 0.00 | 1010.2 | ||
| 20260508043049 | 0 | 0.0 | 0.0 | 0.00 | 0.38 | 0.00 | 1009.9 | ||
| 20260508041610 | 0 | 0.0 | 0.0 | 0.00 | 0.38 | 0.00 | 1010.0 | ||
| 20260508040055 | 0 | 0.0 | 0.0 | 0.00 | 0.38 | 0.00 | 1010.0 | ||
| 20260508034537 | 0 | 0.0 | 0.0 | 0.00 | 0.38 | 0.00 | 1009.8 | ||
| 20260508033032 | 0 | 0.0 | 0.0 | 0.00 | 0.38 | 0.00 | 1009.9 | ||
| 20260508031534 | 52 | 356 | 0.0 | 0.0 | 0.00 | 0.38 | 0.00 | 92 | 1010.2 |
| 20260508030032 | 53 | 356 | 0.0 | 0.0 | 0.00 | 0.38 | 0.00 | 93 | 1010.2 |
| 20260508024527 | 53 | 356 | 0.0 | 0.0 | 0.00 | 0.38 | 0.00 | 93 | 1010.4 |
| 20260508023022 | 53 | 352 | 0.0 | 0.0 | 0.00 | 0.38 | 0.00 | 92 | 1010.4 |
| 20260508021521 | 53 | 330 | 0.0 | 1.0 | 0.00 | 0.38 | 0.00 | 92 | 1010.5 |
| 20260508020028 | 53 | 347 | 0.0 | 0.0 | 0.00 | 0.38 | 0.00 | 92 | 1010.6 |
| 20260508014518 | 54 | 334 | 0.0 | 0.0 | 0.00 | 0.38 | 0.00 | 92 | 1010.6 |
| 20260508013017 | 53 | 329 | 0.0 | 0.0 | 0.00 | 0.38 | 0.00 | 92 | 1010.7 |
| 20260508011515 | 54 | 333 | 0.0 | 0.0 | 0.00 | 0.38 | 0.00 | 92 | 1010.9 |
| 20260508010012 | 54 | 322 | 0.0 | 2.0 | 0.00 | 0.38 | 0.00 | 92 | 1011.0 |
| 20260508004511 | 54 | 352 | 0.0 | 1.0 | 0.00 | 0.38 | 0.00 | 92 | 1011.1 |
| 20260508003008 | 55 | 332 | 0.0 | 0.0 | 0.00 | 0.38 | 0.00 | 92 | 1011.1 |
| 20260508001506 | 55 | 333 | 0.0 | 0.0 | 0.00 | 0.38 | 0.00 | 92 | 1011.2 |
| 20260508000006 | 55 | 333 | 0.0 | 0.0 | 0.00 | 0.38 | 0.00 | 92 | 1011.2 |
| 20260507234603 | 55 | 333 | 0.0 | 0.0 | 0.00 | 0.38 | 0.00 | 92 | 1011.4 |
| 20260507233106 | 55 | 332 | 0.0 | 0.0 | 0.00 | 0.38 | 0.00 | 91 | 1011.4 |
| 20260507231559 | 55 | 332 | 0.0 | 0.0 | 0.00 | 0.38 | 0.00 | 91 | 1011.5 |
| 20260507230056 | 55 | 327 | 0.0 | 0.0 | 0.00 | 0.38 | 0.00 | 90 | 1011.5 |
| 20260507224600 | 55 | 345 | 0.0 | 0.0 | 0.00 | 0.38 | 0.00 | 89 | 1011.6 |
| 20260507223058 | 55 | 19 | 0.0 | 0.0 | 0.00 | 0.38 | 0.00 | 89 | 1011.8 |
| 20260507221552 | 56 | 334 | 0.0 | 0.0 | 0.00 | 0.38 | 0.00 | 89 | 1011.9 |
| 20260507220050 | 56 | 331 | 0.0 | 0.0 | 0.00 | 0.38 | 0.00 | 90 | 1011.8 |
| 20260507214554 | 56 | 319 | 0.0 | 0.0 | 0.00 | 0.38 | 0.38 | 89 | 1011.7 |
| 20260507213100 | 56 | 331 | 0.0 | 0.0 | 0.00 | 0.38 | 0.38 | 90 | 1011.5 |
| 20260507211547 | 55 | 344 | 0.0 | 0.0 | 0.00 | 0.38 | 0.38 | 90 | 1011.3 |
| 20260507210049 | 56 | 342 | 0.0 | 0.0 | 0.00 | 0.38 | 0.38 | 90 | 1011.1 |
| 20260507204546 | 57 | 325 | 0.0 | 0.0 | 0.00 | 0.38 | 0.38 | 91 | 1010.9 |
| 20260507203046 | 58 | 319 | 0.0 | 0.0 | 0.00 | 0.38 | 0.38 | 91 | 1010.8 |
| 20260507201545 | 58 | 316 | 0.0 | 0.0 | 0.00 | 0.38 | 0.38 | 91 | 1010.8 |
| 20260507200046 | 58 | 315 | 0.0 | 0.0 | 0.01 | 0.38 | 0.38 | 90 | 1010.9 |
| 20260507194613 | 57 | 315 | 0.0 | 0.0 | 0.03 | 0.38 | 0.38 | 90 | 1010.7 |
| 20260507193043 | 58 | 317 | 0.0 | 0.0 | 0.06 | 0.38 | 0.38 | 90 | 1010.6 |
| 20260507191541 | 57 | 347 | 0.0 | 0.0 | 0.10 | 0.37 | 0.37 | 89 | 1010.5 |
| 20260507190049 | 57 | 272 | 0.0 | 2.0 | 0.33 | 0.37 | 0.37 | 89 | 1010.7 |
| 20260507184539 | 58 | 281 | 0.0 | 0.0 | 0.34 | 0.35 | 0.35 | 88 | 1010.7 |
| 20260507183045 | 58 | 264 | 0.0 | 0.0 | 0.31 | 0.32 | 0.32 | 88 | 1010.6 |
| 20260507181537 | 59 | 322 | 0.0 | 1.0 | 0.26 | 0.27 | 0.27 | 86 | 1010.5 |
| 20260507180038 | 60 | 322 | 0.0 | 0.0 | 0.03 | 0.04 | 0.04 | 83 | 1010.3 |
| 20260507174543 | 61 | 326 | 1.0 | 13.0 | 0.00 | 0.01 | 0.01 | 78 | 1010.1 |
| 20260507173052 | 64 | 333 | 0.0 | 5.0 | 0.00 | 0.01 | 0.01 | 64 | 1010.0 |
| 20260507171542 | 65 | 96 | 0.0 | 0.0 | 0.00 | 0.01 | 0.01 | 67 | 1009.9 |
| 20260507170034 | 66 | 153 | 0.0 | 1.0 | 0.00 | 0.01 | 0.01 | 76 | 1009.7 |
| 20260507164541 | 66 | 122 | 0.0 | 1.0 | 0.00 | 0.01 | 0.01 | 75 | 1009.7 |
| 20260507163032 | 66 | 111 | 0.0 | 0.0 | 0.00 | 0.01 | 0.01 | 75 | 1009.4 |
| 20260507161536 | 66 | 107 | 0.0 | 4.0 | 0.00 | 0.01 | 0.01 | 74 | 1009.2 |
| 20260507160037 | 66 | 101 | 0.0 | 0.0 | 0.00 | 0.01 | 0.01 | 74 | 1009.1 |
| 20260507154531 | 66 | 144 | 0.0 | 5.0 | 0.00 | 0.01 | 0.01 | 76 | 1009.1 |
| 20260507153029 | 66 | 121 | 0.0 | 10.0 | 0.00 | 0.01 | 0.01 | 75 | 1009.1 |
| 20260507151529 | 66 | 123 | 0.0 | 7.0 | 0.00 | 0.01 | 0.01 | 75 | 1009.0 |
| 20260507150028 | 67 | 125 | 0.0 | 1.0 | 0.00 | 0.01 | 0.01 | 75 | 1009.1 |
| 20260507144531 | 67 | 100 | 0.0 | 8.0 | 0.00 | 0.01 | 0.01 | 77 | 1009.2 |
| 20260507143025 | 67 | 143 | 0.0 | 8.0 | 0.00 | 0.01 | 0.01 | 76 | 1009.5 |
| 20260507141524 | 67 | 104 | 0.0 | 5.0 | 0.00 | 0.01 | 0.01 | 77 | 1009.4 |
| 20260507140022 | 67 | 100 | 1.0 | 11.0 | 0.00 | 0.01 | 0.01 | 74 | 1009.6 |
| 20260507134523 | 68 | 91 | 0.0 | 6.0 | 0.00 | 0.01 | 0.01 | 69 | 1009.7 |
| 20260507133020 | 69 | 114 | 0.0 | 4.0 | 0.00 | 0.01 | 0.01 | 65 | 1009.8 |
| 20260507131527 | 69 | 108 | 0.0 | 3.0 | 0.00 | 0.01 | 0.01 | 70 | 1009.7 |
| 20260507130019 | 68 | 80 | 0.0 | 2.0 | 0.00 | 0.01 | 0.01 | 69 | 1009.9 |
| 20260507124519 | 66 | 91 | 0.0 | 10.0 | 0.00 | 0.01 | 0.01 | 73 | 1010.1 |
| 20260507123014 | 65 | 100 | 0.0 | 4.0 | 0.01 | 0.01 | 0.01 | 80 | 1010.1 |
| 20260507121512 | 63 | 127 | 0.0 | 0.0 | 0.01 | 0.01 | 0.01 | 81 | 1010.4 |
| 20260507120027 | 62 | 136 | 0.0 | 2.0 | 0.01 | 0.01 | 0.01 | 82 | 1010.8 |
| 20260507114509 | 61 | 102 | 0.0 | 0.0 | 0.01 | 0.01 | 0.01 | 82 | 1010.8 |
| 20260507113032 | 61 | 84 | 0.0 | 1.0 | 0.00 | 0.00 | 0.00 | 82 | 1011.1 |
| 20260507111509 | 61 | 119 | 0.0 | 9.0 | 0.00 | 0.00 | 0.00 | 78 | 1011.1 |
| 20260507110010 | 65 | 95 | 1.0 | 15.0 | 0.00 | 0.00 | 0.00 | 76 | 1011.3 |
| 20260507104505 | 66 | 108 | 0.0 | 8.0 | 0.00 | 0.00 | 0.00 | 73 | 1011.2 |
| 20260507103008 | 66 | 107 | 0.0 | 7.0 | 0.00 | 0.00 | 0.00 | 73 | 1011.1 |
| 20260507101507 | 66 | 104 | 1.0 | 12.0 | 0.00 | 0.00 | 0.00 | 71 | 1011.1 |
| 20260507100002 | 67 | 108 | 0.0 | 9.0 | 0.00 | 0.00 | 0.00 | 68 | 1011.1 |
| 20260507094502 | 67 | 91 | 0.0 | 5.0 | 0.00 | 0.00 | 0.00 | 67 | 1011.1 |
| 20260507093059 | 67 | 105 | 0.0 | 8.0 | 0.00 | 0.00 | 0.00 | 68 | 1011.1 |
| 20260507091557 | 67 | 139 | 0.0 | 8.0 | 0.00 | 0.00 | 0.00 | 68 | 1011.1 |
| 20260507090055 | 66 | 97 | 0.0 | 7.0 | 0.00 | 0.00 | 0.00 | 70 | 1011.0 |
| 20260507084555 | 65 | 110 | 0.0 | 8.0 | 0.00 | 0.00 | 0.00 | 73 | 1011.1 |
| 20260507083050 | 65 | 110 | 0.0 | 3.0 | 0.00 | 0.00 | 0.00 | 74 | 1011.1 |
| 20260507081550 | 64 | 100 | 0.0 | 6.0 | 0.00 | 0.00 | 0.00 | 75 | 1011.1 |